Dewpoint
34 31 28 25 28 25 24 23 21 21 18 21 22 22 26 28 32 35 37 37 38 38 43 44 47 47 47 48 51 51 52 51 56 62 61 60 59 60 65 67 66 65 64 63
30 31 27 25 26 27 27 22 22 20 19 21 22 21 23 26 30 35 38 38 39 43 45 50 51 49 48 48 50 52 52 54 58 62 61 61 60 63 65 65 65 64 63 61
27 25 24 25 27 24 23 22 21 18 19 19 22 26 26 31 35 39 38 40 42 47 49 51 52 54 56 56 54 55 56 57 60 62 63 63 63 63 63 63 63 62 61 59
27 28 25 25 23 23 22 22 22 21 19 16 28 16 25 32 35 36 37 39 44 49 49 51 53 54 56 58 60 60 58 59 62 62 63 60 60 60 60 60 62 61 59 59
26 27 27 27 25 25 24 24 22 23 22 21 22 23 21 30 31 32 35 42 46 48 50 52 54 55 56 58 60 62 62 62 63 63 63 63 61 58 58 59 59 59 58 56
26 25 26 25 24 24 27 26 27 27 25 20 21 25 16 27 26 31 37 42 46 48 50 52 54 55 56 57 58 60 59 60 62 63 63 62 60 58 57 57 57 57 57 55
26 25 24 24 24 26 28 24 27 25 30 23 28 26 21 30 33 33 38 43 47 48 50 52 54 54 56 56 57 58 58 58 60 61 62 61 60 59 58 58 56 56 55 55
23 21 24 24 23 23 26 24 29 30 24 29 27 26 24 29 36 40 42 45 47 49 49 52 53 55 56 55 56 56 57 57 57 57 57 58 59 58 57 56 56 56 56 56
20 22 24 23 23 22 22 22 22 24 23 25 26 26 32 34 37 40 43 45 47 48 50 51 52 54 54 55 55 55 55 56 56 57 56 56 56 57 55 56 56 55 54 54
21 20 23 23 23 23 25 24 21 23 30 21 16 18 18 34 34 37 41 43 46 48 49 51 51 53 54 54 55 55 55 55 55 56 56 56 55 55 55 54 54 54 53 53
25 21 21 26 24 21 24 24 24 24 20 18 13 13 18 28 32 32 38 43 46 48 49 50 52 52 53 53 53 54 54 54 54 55 55 55 54 54 53 53 52 53 53 52
26 21 18 22 21 23 22 21 20 18 19 20 15 17 20 23 26 30 38 43 45 47 49 50 51 51 51 51 53 53 53 53 53 54 54 53 53 53 52 53 53 52 51 51
28 23 20 18 20 21 21 22 20 20 19 19 18 17 22 22 23 32 40 43 44 47 49 50 50 50 49 49 50 51 52 52 52 52 52 52 52 52 52 52 52 51 50 50
39 26 22 18 18 20 19 21 22 21 19 17 16 20 24 27 27 34 41 44 44 47 48 50 49 49 49 49 49 50 50 51 51 50 50 49 48 48 49 49 50 50 50 48
30 25 22 20 19 19 20 19 21 21 20 15 15 16 20 26 30 33 40 43 44 46 48 49 48 48 47 47 48 48 49 50 49 48 47 47 46 45 45 43 43 43 42 42
29 25 23 20 20 19 19 20 21 21 20 19 17 17 18 24 29 32 38 42 44 45 48 49 48 48 47 46 46 47 48 48 48 47 46 46 45 45 45 43 42 40 40 40
28 27 24 21 20 19 18 19 20 21 22 20 18 20 21 20 28 31 36 41 43 45 47 49 49 48 48 47 46 47 48 48 46 46 46 45 45 45 44 44 42 42 41 39
32 29 27 23 21 18 21 20 21 22 22 23 22 22 24 22 24 31 35 40 42 45 46 48 48 48 47 48 48 48 48 48 48 47 46 45 44 43 43 42 41 40 38 38
37 33 27 24 22 20 21 22 22 21 21 23 25 24 23 24 25 28 34 38 42 45 46 48 48 47 46 46 47 46 44 42 42 42 42 42 41 41 41 40 38 37 36 35
36 37 30 28 24 23 21 22 25 25 23 24 26 27 24 25 25 27 32 37 41 44 46 47 48 46 44 45 45 42 40 39 39 39 39 38 37 37 37 37 36 35 33 32
32 34 30 29 28 23 23 25 29 21 20 25 25 28 28 28 29 26 31 36 40 44 46 48 49 47 45 45 44 41 38 36 35 34 33 33 33 34 34 35 33 32 31 32
30 30 30 29 27 25 28 27 24 26 33 29 29 31 31 31 30 33 33 39 41 45 47 48 48 47 46 46 44 40 37 36 33 32 31 30 31 30 31 33 32 30 31 30
28 31 29 28 28 29 29 30 31 37 35 31 31 33 32 32 32 35 36 40 42 46 47 48 49 48 47 45 44 41 38 36 33 31 31 29 29 28 30 30 31 30 30 29
26 32 31 30 28 27 29 30 33 33 32 32 32 33 34 34 34 36 37 40 42 45 47 49 49 48 47 45 44 42 38 36 33 31 30 28 27 27 27 29 29 30 29 28
25 28 27 27 29 28 30 30 33 33 33 31 32 33 34 33 36 37 39 40 42 45 48 48 48 48 48 45 44 43 39 36 33 31 30 28 27 27 27 28 29 30 28 31
27 27 26 24 26 26 26 30 32 33 33 31 32 33 35 35 37 39 39 41 42 44 46 47 48 49 47 45 44 43 39 36 34 31 30 30 29 30 29 29 29 35 36 36
Lifted_Index
6 6 6 6 6 6 7 7 7 7 8 8 8 8 7 7 7 6 5 5 5 4 3 2 2 1 -0 -1 -1 -0 -0 -1 -2 -3 -3 -3 -3 -3 -3 -3 -2 -2 -1 -0
6 6 6 6 7 7 7 7 7 7 8 8 8 7 7 7 6 6 6 5 5 4 3 2 1 0 -1 -1 -1 -1 -1 -1 -2 -3 -3 -3 -2 -2 -2 -2 -2 -1 -0 0
6 6 6 7 7 7 7 7 7 7 7 7 7 6 6 6 6 6 6 6 5 4 2 1 1 -0 -1 -2 -2 -2 -2 -2 -3 -3 -3 -2 -2 -1 -1 -1 -1 -0 1 1
6 6 6 6 7 7 7 7 7 7 7 6 5 5 5 6 6 6 6 6 5 4 2 1 0 -0 -1 -2 -3 -3 -3 -3 -3 -3 -3 -2 -1 -1 -0 -0 -0 0 1 2
5 6 6 6 7 7 7 7 7 7 6 5 5 5 5 5 6 6 6 5 5 4 2 1 1 0 -1 -2 -2 -3 -3 -3 -3 -3 -3 -2 -1 -0 0 1 1 1 2 2
6 6 6 6 7 7 7 7 6 6 5 4 4 4 5 5 6 6 6 5 5 4 3 2 1 0 -0 -1 -2 -2 -2 -3 -3 -3 -3 -2 -1 0 1 1 1 2 2 2
5 5 6 6 7 7 7 6 4 3 2 2 4 4 4 5 6 6 5 5 5 4 3 2 1 1 0 -0 -1 -1 -2 -2 -2 -3 -3 -2 -1 1 2 2 2 2 3 3
4 4 5 6 6 6 6 5 3 2 1 2 3 4 4 6 6 6 5 5 5 4 4 3 2 2 1 1 0 -0 -1 -1 -2 -2 -2 -1 -0 1 2 2 3 3 3 2
3 4 4 5 6 6 6 5 5 4 2 2 3 4 5 6 6 6 5 5 5 5 4 3 3 2 2 1 1 1 0 0 -1 -1 -2 -2 -1 0 1 2 2 3 3 3
4 4 4 5 5 5 5 5 5 4 3 1 2 3 5 6 6 6 5 5 5 5 5 4 3 3 2 2 2 2 1 1 0 -0 -1 -1 -1 -0 0 1 1 2 2 3
3 3 4 5 5 5 5 5 5 4 3 2 2 3 5 6 6 6 6 5 5 5 5 5 4 3 3 2 2 2 2 1 1 1 1 0 0 -0 -0 0 1 1 2 3
2 2 3 4 5 5 5 5 5 5 4 3 2 4 6 7 7 6 5 5 5 5 5 5 5 4 3 2 2 2 2 2 2 2 2 2 1 1 1 1 1 2 2 3
1 2 2 3 4 5 4 4 5 5 4 3 3 4 6 7 7 6 5 5 5 5 6 6 5 4 4 3 3 2 2 2 2 2 2 2 2 2 2 2 2 2 3 3
2 1 2 2 3 3 3 3 4 4 4 3 3 5 6 7 7 6 5 5 5 5 5 5 5 4 4 4 3 3 2 3 2 2 2 2 2 2 2 2 3 3 4 4
2 2 2 2 2 3 3 3 3 3 3 3 4 5 6 7 7 6 5 5 4 5 5 5 5 5 4 4 4 3 3 3 3 3 3 3 3 3 3 3 4 4 5 5
2 2 2 2 2 3 3 4 4 3 4 4 4 5 6 7 7 6 5 5 4 5 5 5 5 5 5 4 4 4 3 3 3 3 3 4 4 4 4 5 5 6 6 6
2 2 1 1 2 2 3 4 4 4 4 4 4 5 6 7 7 6 6 5 5 5 5 5 5 5 5 4 4 4 4 4 4 5 5 6 6 7 7 7 8 8 8 8
1 1 1 1 1 2 3 4 4 4 4 4 5 5 6 7 7 7 6 6 5 5 5 5 5 5 5 5 4 4 5 5 6 7 8 8 9 9 10 10 10 10 11 11
2 2 1 1 1 2 3 4 4 4 4 4 5 5 6 6 7 6 6 6 5 5 5 5 5 5 5 5 4 4 5 6 8 9 10 10 11 11 12 12 13 13 13 14
2 2 2 1 1 2 3 4 4 4 4 4 4 5 5 5 5 6 6 6 5 5 5 5 5 5 5 5 5 5 5 7 9 10 11 12 12 13 13 14 14 15 15 16
2 2 2 1 1 2 3 4 4 4 4 4 4 4 5 5 5 6 7 6 6 5 4 4 5 5 6 5 5 5 6 7 9 11 12 13 14 14 14 15 15 16 16 16
2 2 2 2 1 2 3 4 4 4 4 4 4 4 4 5 6 6 7 6 5 5 4 4 4 5 6 6 6 6 7 8 10 11 13 14 14 15 15 15 16 16 16 16
1 1 2 2 2 2 3 4 4 4 4 4 4 4 4 5 6 6 6 6 5 5 4 4 4 5 5 6 6 6 7 8 10 11 12 13 14 14 15 15 15 15 15 15
0 1 1 2 1 2 2 3 4 4 4 4 4 4 5 5 6 6 6 6 5 5 4 4 4 5 5 5 6 6 7 8 9 11 12 12 13 13 14 14 14 15 15 15
-0 0 1 1 1 1 1 2 3 3 3 4 4 5 5 5 6 6 6 6 6 5 5 4 5 5 5 5 5 6 7 8 9 10 11 12 12 12 13 13 14 15 15 15
-0 0 1 2 1 1 1 1 2 2 3 4 4 5 5 5 6 6 6 6 6 5 5 5 5 5 5 6 5 6 7 8 8 9 10 11 11 12 12 13 14 15 16 16